Time,TemperatureF,DewpointF,PressureIn,WindDirection,WindDirectionDegrees,WindSpeedMPH,WindSpeedGustMPH,Humidity,HourlyPrecipIn,Conditions,Clouds,dailyrainin,SoftwareType,DateUTC
2013-11-16 00:03:00,52.7,46.3,29.67,SSE,157,9.0,9.0,79,0.00,BKN,BKN,0.00,WeatherDisplay:10.37,2013-11-16 06:03:00,
2013-11-16 00:09:00,52.7,46.3,29.67,SSE,157,9.0,9.0,79,0.00,BKN,BKN,0.00,WeatherDisplay:10.37,2013-11-16 06:09:00,
2013-11-16 00:15:00,52.7,46.3,29.67,SSE,157,9.0,9.0,79,0.00,BKN,BKN,0.00,WeatherDisplay:10.37,2013-11-16 06:15:00,
2013-11-16 00:21:00,52.7,46.3,29.67,SSE,157,9.0,9.0,79,0.00,BKN,BKN,0.00,WeatherDisplay:10.37,2013-11-16 06:21:00,
2013-11-16 00:24:00,52.7,46.3,29.67,SSE,157,9.0,9.0,79,0.00,BKN,BKN,0.00,WeatherDisplay:10.37,2013-11-16 06:24:00,
2013-11-16 00:30:00,52.7,46.3,29.67,SSE,157,9.0,9.0,79,0.00,BKN,BKN,0.00,WeatherDisplay:10.37,2013-11-16 06:30:00,
2013-11-16 00:36:00,52.7,46.3,29.67,SSE,157,9.0,9.0,79,0.00,BKN,BKN,0.00,WeatherDisplay:10.37,2013-11-16 06:36:00,
2013-11-16 00:42:00,52.7,46.3,29.67,SSE,157,9.0,9.0,79,0.00,BKN,BKN,0.00,WeatherDisplay:10.37,2013-11-16 06:42:00,
2013-11-16 00:48:00,52.7,46.3,29.67,SSE,157,9.0,9.0,79,0.00,BKN,BKN,0.00,WeatherDisplay:10.37,2013-11-16 06:48:00,
2013-11-16 00:54:00,52.7,46.3,29.67,SSE,157,9.0,9.0,79,0.00,BKN,BKN,0.00,WeatherDisplay:10.37,2013-11-16 06:54:00,
2013-11-16 01:00:00,52.7,46.3,29.67,SSE,157,9.0,9.0,79,0.00,BKN,BKN,0.00,WeatherDisplay:10.37,2013-11-16 07:00:00,
2013-11-16 01:06:00,52.7,46.3,29.67,SSE,157,9.0,9.0,79,0.00,OVC,OVC,0.00,WeatherDisplay:10.37,2013-11-16 07:06:00,
2013-11-16 01:12:00,52.7,46.3,29.67,SSE,157,9.0,9.0,79,0.00,OVC,OVC,0.00,WeatherDisplay:10.37,2013-11-16 07:12:00,
2013-11-16 01:18:00,52.7,46.3,29.67,SSE,157,9.0,9.0,79,0.00,OVC,OVC,0.00,WeatherDisplay:10.37,2013-11-16 07:18:00,
2013-11-16 01:24:00,52.7,46.3,29.67,SSE,157,9.0,9.0,79,0.00,OVC,OVC,0.00,WeatherDisplay:10.37,2013-11-16 07:24:00,
2013-11-16 01:30:00,52.7,46.3,29.67,SSE,157,9.0,9.0,79,0.00,OVC,OVC,0.00,WeatherDisplay:10.37,2013-11-16 07:30:00,
2013-11-16 01:36:00,52.7,46.3,29.67,SSE,157,9.0,9.0,79,0.00,OVC,OVC,0.00,WeatherDisplay:10.37,2013-11-16 07:36:00,
2013-11-16 01:42:00,52.7,46.3,29.67,SSE,157,9.0,9.0,79,0.00,OVC,OVC,0.00,WeatherDisplay:10.37,2013-11-16 07:42:00,
2013-11-16 01:48:00,52.7,46.3,29.67,SSE,157,9.0,9.0,79,0.00,OVC,OVC,0.00,WeatherDisplay:10.37,2013-11-16 07:48:00,
2013-11-16 01:54:00,52.7,46.3,29.67,SSE,157,9.0,9.0,79,0.00,OVC,OVC,0.00,WeatherDisplay:10.37,2013-11-16 07:54:00,
2013-11-16 02:00:00,52.7,46.3,29.67,SSE,157,9.0,9.0,79,0.00,OVC,OVC,0.00,WeatherDisplay:10.37,2013-11-16 08:00:00,
2013-11-16 02:06:00,52.7,46.3,29.67,SSE,157,9.0,9.0,79,0.00,OVC,OVC,0.00,WeatherDisplay:10.37,2013-11-16 08:06:00,
2013-11-16 02:12:00,52.7,46.3,29.67,SSE,157,9.0,9.0,79,0.00,OVC,OVC,0.00,WeatherDisplay:10.37,2013-11-16 08:12:00,
2013-11-16 02:18:00,52.7,46.3,29.67,SSE,157,9.0,9.0,79,0.00,OVC,OVC,0.00,WeatherDisplay:10.37,2013-11-16 08:18:00,
2013-11-16 02:24:00,52.7,46.3,29.67,SSE,157,9.0,9.0,79,0.00,OVC,OVC,0.00,WeatherDisplay:10.37,2013-11-16 08:24:00,
2013-11-16 02:30:00,52.7,49.2,29.60,SSE,150,12.0,16.0,88,0.00,OVC,OVC,0.00,WeatherDisplay:10.37,2013-11-16 08:30:00,
2013-11-16 02:36:00,53.1,49.6,29.60,SSE,153,10.0,17.0,88,0.00,OVC,OVC,0.00,WeatherDisplay:10.37,2013-11-16 08:36:00,
2013-11-16 02:42:00,53.1,49.6,29.60,SSE,158,12.0,20.0,88,0.00,OVC,OVC,0.00,WeatherDisplay:10.37,2013-11-16 08:42:00,
2013-11-16 02:48:00,53.3,49.8,29.60,SSE,153,16.0,21.0,88,0.00,OVC,OVC,0.00,WeatherDisplay:10.37,2013-11-16 08:48:00,
2013-11-16 02:54:00,53.3,49.8,29.60,SE,138,9.0,16.0,88,0.00,OVC,OVC,0.00,WeatherDisplay:10.37,2013-11-16 08:54:00,
2013-11-16 03:00:00,53.3,49.8,29.59,SSE,163,12.0,16.0,88,0.00,OVC,OVC,0.00,WeatherDisplay:10.37,2013-11-16 09:00:00,
2013-11-16 03:06:00,53.5,50.0,29.59,SSE,164,12.0,22.0,88,0.00,BKN,BKN,0.00,WeatherDisplay:10.37,2013-11-16 09:06:00,
2013-11-16 03:12:00,53.5,50.0,29.59,SSE,156,9.0,17.0,88,0.00,BKN,BKN,0.00,WeatherDisplay:10.37,2013-11-16 09:12:00,
2013-11-16 03:18:00,53.5,50.3,29.59,SSE,156,12.0,24.0,89,0.00,BKN,BKN,0.00,WeatherDisplay:10.37,2013-11-16 09:18:00,
2013-11-16 03:24:00,53.6,50.4,29.59,SE,145,7.0,16.0,89,0.00,BKN,BKN,0.00,WeatherDisplay:10.37,2013-11-16 09:24:00,
2013-11-16 03:30:00,53.6,50.5,29.59,South,169,8.0,12.0,89,0.00,BKN,BKN,0.00,WeatherDisplay:10.37,2013-11-16 09:30:00,
2013-11-16 03:36:00,54.0,50.8,29.58,South,175,9.0,15.0,89,0.00,BKN,BKN,0.00,WeatherDisplay:10.37,2013-11-16 09:36:00,
2013-11-16 03:42:00,54.2,51.0,29.58,SSE,147,10.0,17.0,89,0.00,BKN,BKN,0.00,WeatherDisplay:10.37,2013-11-16 09:42:00,
2013-11-16 03:48:00,54.5,51.3,29.58,SSE,168,10.0,17.0,89,0.00,BKN,BKN,0.00,WeatherDisplay:10.37,2013-11-16 09:48:00,
2013-11-16 03:54:00,54.5,51.0,29.57,SE,141,9.0,15.0,88,0.00,BKN,BKN,0.00,WeatherDisplay:10.37,2013-11-16 09:54:00,
2013-11-16 04:00:00,54.7,51.2,29.57,SSE,164,17.0,26.0,88,0.00,BKN,BKN,0.00,WeatherDisplay:10.37,2013-11-16 10:00:00,
2013-11-16 04:06:00,54.9,51.4,29.57,SSE,162,15.0,20.0,88,0.00,BKN,BKN,0.00,WeatherDisplay:10.37,2013-11-16 10:06:00,
2013-11-16 04:12:00,54.9,51.4,29.57,SSE,154,7.0,15.0,88,0.00,BKN,BKN,0.00,WeatherDisplay:10.37,2013-11-16 10:12:00,
2013-11-16 04:18:00,54.9,51.4,29.57,SE,146,14.0,14.0,88,0.00,BKN,BKN,0.00,WeatherDisplay:10.37,2013-11-16 10:18:00,
2013-11-16 04:24:00,55.1,51.6,29.57,SE,136,13.0,15.0,88,0.00,BKN,BKN,0.00,WeatherDisplay:10.37,2013-11-16 10:24:00,
2013-11-16 04:30:00,55.3,51.8,29.58,SE,146,9.0,17.0,88,0.00,BKN,BKN,0.00,WeatherDisplay:10.37,2013-11-16 10:30:00,
2013-11-16 04:36:00,55.4,51.6,29.58,South,181,12.0,23.0,87,0.00,BKN,BKN,0.00,WeatherDisplay:10.37,2013-11-16 10:36:00,
2013-11-16 04:42:00,55.6,51.8,29.58,South,177,13.0,20.0,87,0.00,BKN,BKN,0.00,WeatherDisplay:10.37,2013-11-16 10:42:00,
2013-11-16 04:48:00,55.8,51.9,29.58,South,182,9.0,17.0,87,0.00,BKN,BKN,0.00,WeatherDisplay:10.37,2013-11-16 10:48:00,
2013-11-16 04:54:00,56.2,52.1,29.57,SSE,166,14.0,18.0,86,0.00,BKN,BKN,0.00,WeatherDisplay:10.37,2013-11-16 10:54:00,
2013-11-16 05:00:00,56.3,52.1,29.56,SSE,161,16.0,21.0,86,0.00,BKN,BKN,0.00,WeatherDisplay:10.37,2013-11-16 11:00:00,
2013-11-16 05:06:00,56.5,52.3,29.56,SSE,156,15.0,17.0,86,0.00,BKN,BKN,0.00,WeatherDisplay:10.37,2013-11-16 11:06:00,
2013-11-16 05:12:00,56.5,52.3,29.56,SSE,166,17.0,28.0,86,0.00,BKN,BKN,0.00,WeatherDisplay:10.37,2013-11-16 11:12:00,
2013-11-16 05:18:00,56.7,52.5,29.56,South,185,14.0,20.0,86,0.00,BKN,BKN,0.00,WeatherDisplay:10.37,2013-11-16 11:18:00,
2013-11-16 05:24:00,56.9,52.4,29.56,South,175,13.0,21.0,85,0.00,BKN,BKN,0.00,WeatherDisplay:10.37,2013-11-16 11:24:00,
2013-11-16 05:30:00,56.9,52.4,29.55,SSE,156,12.0,12.0,85,0.00,BKN,BKN,0.00,WeatherDisplay:10.37,2013-11-16 11:30:00,
2013-11-16 05:36:00,57.1,52.6,29.55,SSE,166,7.0,24.0,85,0.00,BKN,BKN,0.00,WeatherDisplay:10.37,2013-11-16 11:36:00,
2013-11-16 05:42:00,57.2,52.7,29.56,South,173,16.0,22.0,85,0.00,BKN,BKN,0.00,WeatherDisplay:10.37,2013-11-16 11:42:00,
2013-11-16 05:48:00,57.2,52.7,29.55,SSE,162,20.0,25.0,85,0.00,BKN,BKN,0.00,WeatherDisplay:10.37,2013-11-16 11:48:00,
2013-11-16 05:54:00,57.4,52.9,29.55,SSE,161,12.0,20.0,85,0.00,BKN,BKN,0.00,WeatherDisplay:10.37,2013-11-16 11:54:00,
2013-11-16 06:00:00,57.4,52.6,29.55,SSE,164,10.0,22.0,84,0.00,BKN,BKN,0.00,WeatherDisplay:10.37,2013-11-16 12:00:00,
2013-11-16 06:06:00,57.4,52.6,29.55,SSE,161,10.0,24.0,84,0.00,BKN,BKN,0.00,WeatherDisplay:10.37,2013-11-16 12:06:00,
2013-11-16 06:12:00,57.4,52.6,29.55,SSE,165,14.0,18.0,84,0.00,BKN,BKN,0.00,WeatherDisplay:10.37,2013-11-16 12:12:00,
2013-11-16 06:18:00,57.4,52.6,29.55,SSE,152,10.0,22.0,84,0.00,BKN,BKN,0.00,WeatherDisplay:10.37,2013-11-16 12:18:00,
2013-11-16 06:24:00,57.6,52.8,29.55,SSE,157,15.0,18.0,84,0.00,BKN,BKN,0.00,WeatherDisplay:10.37,2013-11-16 12:24:00,
2013-11-16 06:30:00,57.6,52.8,29.54,SSE,156,16.0,20.0,84,0.00,BKN,BKN,0.00,WeatherDisplay:10.37,2013-11-16 12:30:00,
2013-11-16 06:36:00,57.8,52.6,29.54,SSE,156,20.0,24.0,83,0.00,BKN,BKN,0.00,WeatherDisplay:10.37,2013-11-16 12:36:00,
2013-11-16 06:42:00,57.8,52.6,29.54,SSE,167,15.0,20.0,83,0.00,BKN,BKN,0.00,WeatherDisplay:10.37,2013-11-16 12:42:00,
2013-11-16 06:48:00,57.6,52.4,29.54,SSE,156,16.0,22.0,83,0.00,BKN,BKN,0.00,WeatherDisplay:10.37,2013-11-16 12:48:00,
2013-11-16 06:54:00,57.6,52.4,29.54,SE,141,18.0,23.0,83,0.00,BKN,BKN,0.00,WeatherDisplay:10.37,2013-11-16 12:54:00,
2013-11-16 07:00:00,57.6,52.4,29.54,SSE,149,14.0,17.0,83,0.00,BKN,BKN,0.00,WeatherDisplay:10.37,2013-11-16 13:00:00,
2013-11-16 07:06:00,57.4,52.2,29.53,SSE,148,13.0,16.0,83,0.00,OVC,OVC,0.00,WeatherDisplay:10.37,2013-11-16 13:06:00,
2013-11-16 07:12:00,57.4,52.2,29.53,South,170,15.0,22.0,83,0.00,OVC,OVC,0.00,WeatherDisplay:10.37,2013-11-16 13:12:00,
2013-11-16 07:18:00,57.4,51.9,29.53,South,180,13.0,24.0,82,0.00,OVC,OVC,0.00,WeatherDisplay:10.37,2013-11-16 13:18:00,
2013-11-16 07:24:00,57.4,51.9,29.53,South,182,15.0,20.0,82,0.00,OVC,OVC,0.00,WeatherDisplay:10.37,2013-11-16 13:24:00,
2013-11-16 07:30:00,57.4,51.9,29.53,South,175,15.0,21.0,82,0.00,OVC,OVC,0.00,WeatherDisplay:10.37,2013-11-16 13:30:00,
2013-11-16 07:36:00,57.4,51.9,29.54,South,175,14.0,24.0,82,0.00,OVC,OVC,0.00,WeatherDisplay:10.37,2013-11-16 13:36:00,
2013-11-16 07:42:00,57.6,52.1,29.54,SSE,166,13.0,23.0,82,0.00,OVC,OVC,0.00,WeatherDisplay:10.37,2013-11-16 13:42:00,
2013-11-16 07:48:00,57.8,52.0,29.53,SSE,159,14.0,21.0,81,0.00,OVC,OVC,0.00,WeatherDisplay:10.37,2013-11-16 13:48:00,
2013-11-16 07:54:00,58.0,52.2,29.53,SSE,147,12.0,24.0,81,0.00,OVC,OVC,0.00,WeatherDisplay:10.37,2013-11-16 13:54:00,
2013-11-16 08:00:00,58.0,52.2,29.53,SSE,163,14.0,24.0,81,0.00,OVC,OVC,0.00,WeatherDisplay:10.37,2013-11-16 14:00:00,
2013-11-16 08:06:00,58.0,52.2,29.53,South,186,6.0,7.0,81,0.00,BKN,BKN,0.00,WeatherDisplay:10.37,2013-11-16 14:06:00,
2013-11-16 08:12:00,58.1,51.6,29.53,South,189,13.0,18.0,79,0.00,BKN,BKN,0.00,WeatherDisplay:10.37,2013-11-16 14:12:00,
2013-11-16 08:18:00,58.1,51.6,29.53,South,174,17.0,22.0,79,0.00,BKN,BKN,0.00,WeatherDisplay:10.37,2013-11-16 14:18:00,
2013-11-16 08:24:00,58.3,51.8,29.53,SSE,158,15.0,22.0,79,0.00,BKN,BKN,0.00,WeatherDisplay:10.37,2013-11-16 14:24:00,
2013-11-16 08:30:00,58.5,51.6,29.53,SSE,160,15.0,20.0,78,0.00,BKN,BKN,0.00,WeatherDisplay:10.37,2013-11-16 14:30:00,
2013-11-16 08:36:00,58.5,51.6,29.53,South,170,12.0,21.0,78,0.00,BKN,BKN,0.00,WeatherDisplay:10.37,2013-11-16 14:36:00,
2013-11-16 08:42:00,58.5,51.6,29.53,SSE,165,8.0,21.0,78,0.00,BKN,BKN,0.00,WeatherDisplay:10.37,2013-11-16 14:42:00,
2013-11-16 08:48:00,58.9,51.7,29.53,SSE,164,12.0,14.0,77,0.00,BKN,BKN,0.00,WeatherDisplay:10.37,2013-11-16 14:48:00,
2013-11-16 08:54:00,59.0,51.8,29.54,South,182,15.0,20.0,77,0.00,BKN,BKN,0.00,WeatherDisplay:10.37,2013-11-16 14:54:00,
2013-11-16 09:00:00,59.4,51.8,29.54,SSE,159,17.0,24.0,76,0.00,BKN,BKN,0.00,WeatherDisplay:10.37,2013-11-16 15:00:00,
2013-11-16 09:06:00,59.6,52.0,29.53,SSE,162,14.0,21.0,76,0.00,BKN,BKN,0.00,WeatherDisplay:10.37,2013-11-16 15:06:00,
2013-11-16 09:12:00,59.8,51.9,29.54,SSE,163,14.0,21.0,75,0.00,BKN,BKN,0.00,WeatherDisplay:10.37,2013-11-16 15:12:00,
2013-11-16 09:18:00,60.3,51.9,29.54,SSE,164,16.0,23.0,74,0.00,BKN,BKN,0.00,WeatherDisplay:10.37,2013-11-16 15:18:00,
2013-11-16 09:24:00,60.5,52.1,29.54,SSE,168,13.0,20.0,74,0.00,BKN,BKN,0.00,WeatherDisplay:10.37,2013-11-16 15:24:00,
2013-11-16 09:30:00,60.8,52.0,29.54,South,176,14.0,21.0,73,0.00,BKN,BKN,0.00,WeatherDisplay:10.37,2013-11-16 15:30:00,
2013-11-16 09:36:00,61.9,52.4,29.54,SSE,168,21.0,26.0,71,0.00,BKN,BKN,0.00,WeatherDisplay:10.37,2013-11-16 15:36:00,
2013-11-16 09:42:00,62.1,52.5,29.54,SSE,163,16.0,25.0,71,0.00,BKN,BKN,0.00,WeatherDisplay:10.37,2013-11-16 15:42:00,
2013-11-16 09:48:00,62.4,52.9,29.54,South,169,16.0,20.0,71,0.00,BKN,BKN,0.00,WeatherDisplay:10.37,2013-11-16 15:48:00,
2013-11-16 09:54:00,62.6,52.6,29.54,SSE,159,13.0,21.0,70,0.00,BKN,BKN,0.00,WeatherDisplay:10.37,2013-11-16 15:54:00,
2013-11-16 10:00:00,62.8,52.8,29.54,South,173,13.0,22.0,70,0.00,BKN,BKN,0.00,WeatherDisplay:10.37,2013-11-16 16:00:00,
2013-11-16 10:06:00,63.0,52.6,29.54,South,169,16.0,24.0,69,0.00,BKN,BKN,0.00,WeatherDisplay:10.37,2013-11-16 16:06:00,
2013-11-16 10:12:00,63.4,53.0,29.54,South,178,18.0,29.0,69,0.00,BKN,BKN,0.00,WeatherDisplay:10.37,2013-11-16 16:12:00,
2013-11-16 10:18:00,63.2,52.9,29.54,South,183,24.0,28.0,69,0.00,BKN,BKN,0.00,WeatherDisplay:10.37,2013-11-16 16:18:00,
2013-11-16 10:24:00,62.8,52.4,29.54,South,191,14.0,25.0,69,0.00,BKN,BKN,0.00,WeatherDisplay:10.37,2013-11-16 16:24:00,
2013-11-16 10:30:00,62.8,52.4,29.53,South,191,13.0,24.0,69,0.00,BKN,BKN,0.00,WeatherDisplay:10.37,2013-11-16 16:30:00,
2013-11-16 10:36:00,63.0,52.7,29.53,South,191,17.0,18.0,69,0.00,BKN,BKN,0.00,WeatherDisplay:10.37,2013-11-16 16:36:00,
2013-11-16 10:42:00,63.4,53.0,29.53,SSE,167,18.0,22.0,69,0.00,BKN,BKN,0.00,WeatherDisplay:10.37,2013-11-16 16:42:00,
2013-11-16 10:48:00,63.6,52.9,29.53,South,180,10.0,20.0,68,0.00,BKN,BKN,0.00,WeatherDisplay:10.37,2013-11-16 16:48:00,
2013-11-16 10:54:00,64.1,53.3,29.53,South,179,13.0,15.0,68,0.00,BKN,BKN,0.00,WeatherDisplay:10.37,2013-11-16 16:54:00,
2013-11-16 11:00:00,63.9,53.2,29.53,SSE,163,12.0,15.0,68,0.00,BKN,BKN,0.00,WeatherDisplay:10.37,2013-11-16 17:00:00,
2013-11-16 11:06:00,64.8,53.2,29.53,SSE,147,17.0,24.0,66,0.00,BKN,BKN,0.00,WeatherDisplay:10.37,2013-11-16 17:06:00,
2013-11-16 11:12:00,65.8,53.3,29.53,SSE,154,15.0,21.0,64,0.00,BKN,BKN,0.00,WeatherDisplay:10.37,2013-11-16 17:12:00,
2013-11-16 11:18:00,66.4,53.4,29.53,South,169,15.0,21.0,63,0.00,BKN,BKN,0.00,WeatherDisplay:10.37,2013-11-16 17:18:00,
2013-11-16 11:24:00,65.9,53.3,29.52,SSW,196,15.0,24.0,64,0.00,BKN,BKN,0.00,WeatherDisplay:10.37,2013-11-16 17:24:00,
2013-11-16 11:30:00,66.6,53.1,29.52,South,191,18.0,30.0,62,0.00,BKN,BKN,0.00,WeatherDisplay:10.37,2013-11-16 17:30:00,
2013-11-16 11:36:00,66.6,53.1,29.52,SW,231,12.0,12.0,62,0.00,BKN,BKN,0.00,WeatherDisplay:10.37,2013-11-16 17:36:00,
2013-11-16 11:42:00,65.5,53.0,29.51,South,176,14.0,22.0,64,0.00,BKN,BKN,0.00,WeatherDisplay:10.37,2013-11-16 17:42:00,
2013-11-16 11:48:00,66.0,53.5,29.51,SE,141,20.0,32.0,64,0.00,BKN,BKN,0.00,WeatherDisplay:10.37,2013-11-16 17:48:00,
2013-11-16 11:54:00,67.9,54.0,29.50,South,171,12.0,22.0,61,0.00,BKN,BKN,0.00,WeatherDisplay:10.37,2013-11-16 17:54:00,
2013-11-16 12:00:00,68.5,54.1,29.50,SSW,196,9.0,15.0,60,0.00,BKN,BKN,0.00,WeatherDisplay:10.37,2013-11-16 18:00:00,
2013-11-16 12:06:00,68.5,54.1,29.50,South,172,10.0,15.0,60,0.00,BKN,BKN,0.00,WeatherDisplay:10.37,2013-11-16 18:06:00,
2013-11-16 12:12:00,69.1,54.1,29.49,South,169,13.0,18.0,59,0.00,BKN,BKN,0.00,WeatherDisplay:10.37,2013-11-16 18:12:00,
2013-11-16 12:18:00,69.8,54.3,29.49,South,182,12.0,20.0,58,0.00,BKN,BKN,0.00,WeatherDisplay:10.37,2013-11-16 18:18:00,
2013-11-16 12:24:00,70.4,53.9,29.48,SW,223,15.0,20.0,56,0.00,BKN,BKN,0.00,WeatherDisplay:10.37,2013-11-16 18:24:00,
2013-11-16 12:30:00,70.7,53.7,29.48,SSE,168,13.0,17.0,55,0.00,BKN,BKN,0.00,WeatherDisplay:10.37,2013-11-16 18:30:00,
2013-11-16 12:36:00,71.6,54.1,29.48,South,171,9.0,24.0,54,0.00,BKN,BKN,0.00,WeatherDisplay:10.37,2013-11-16 18:36:00,
2013-11-16 12:42:00,72.0,53.4,29.47,South,178,10.0,18.0,52,0.00,BKN,BKN,0.00,WeatherDisplay:10.37,2013-11-16 18:42:00,
2013-11-16 12:48:00,71.7,53.6,29.47,South,176,14.0,25.0,53,0.00,BKN,BKN,0.00,WeatherDisplay:10.37,2013-11-16 18:48:00,
2013-11-16 12:54:00,71.5,53.4,29.47,SSW,201,18.0,25.0,53,0.00,BKN,BKN,0.00,WeatherDisplay:10.37,2013-11-16 18:54:00,
2013-11-16 13:00:00,71.7,53.2,29.47,North,352,10.0,17.0,52,0.00,BKN,BKN,0.00,WeatherDisplay:10.37,2013-11-16 19:00:00,
2013-11-16 13:06:00,72.5,52.2,29.46,WNW,298,13.0,20.0,49,0.00,SCT,SCT,0.00,WeatherDisplay:10.37,2013-11-16 19:06:00,
2013-11-16 13:12:00,72.7,52.4,29.46,SSW,204,24.0,24.0,49,0.00,SCT,SCT,0.00,WeatherDisplay:10.37,2013-11-16 19:12:00,
2013-11-16 13:18:00,73.5,50.8,29.46,South,174,17.0,20.0,45,0.00,SCT,SCT,0.00,WeatherDisplay:10.37,2013-11-16 19:18:00,
2013-11-16 13:24:00,73.3,50.6,29.46,SSW,209,13.0,22.0,45,0.00,SCT,SCT,0.00,WeatherDisplay:10.37,2013-11-16 19:24:00,
2013-11-16 13:30:00,73.8,50.5,29.45,SW,224,16.0,22.0,44,0.00,SCT,SCT,0.00,WeatherDisplay:10.37,2013-11-16 19:30:00,
2013-11-16 13:36:00,74.2,50.2,29.45,SW,233,12.0,15.0,43,0.00,SCT,SCT,0.00,WeatherDisplay:10.37,2013-11-16 19:36:00,
2013-11-16 13:42:00,74.4,49.8,29.44,SW,217,12.0,20.0,42,0.00,SCT,SCT,0.00,WeatherDisplay:10.37,2013-11-16 19:42:00,
2013-11-16 13:48:00,75.1,50.5,29.44,SSW,209,14.0,22.0,42,0.00,SCT,SCT,0.00,WeatherDisplay:10.37,2013-11-16 19:48:00,
2013-11-16 13:54:00,75.2,50.5,29.43,WSW,246,12.0,23.0,42,0.00,SCT,SCT,0.00,WeatherDisplay:10.37,2013-11-16 19:54:00,
2013-11-16 14:00:00,75.2,49.8,29.43,WSW,242,13.0,20.0,41,0.00,SCT,SCT,0.00,WeatherDisplay:10.37,2013-11-16 20:00:00,
2013-11-16 14:06:00,75.3,51.3,29.43,South,173,15.0,29.0,43,0.00,FEW,FEW,0.00,WeatherDisplay:10.37,2013-11-16 20:06:00,
2013-11-16 14:12:00,75.4,51.3,29.43,SSE,161,17.0,21.0,43,0.00,FEW,FEW,0.00,WeatherDisplay:10.37,2013-11-16 20:12:00,
2013-11-16 14:18:00,74.9,50.9,29.42,South,186,13.0,23.0,43,0.00,FEW,FEW,0.00,WeatherDisplay:10.37,2013-11-16 20:18:00,
2013-11-16 14:24:00,75.4,50.7,29.42,SSE,161,18.0,26.0,42,0.00,FEW,FEW,0.00,WeatherDisplay:10.37,2013-11-16 20:24:00,
2013-11-16 14:30:00,75.8,51.1,29.42,SE,127,9.0,17.0,42,0.00,FEW,FEW,0.00,WeatherDisplay:10.37,2013-11-16 20:30:00,
2013-11-16 14:36:00,76.0,51.2,29.41,SE,139,25.0,28.0,42,0.00,FEW,FEW,0.00,WeatherDisplay:10.37,2013-11-16 20:36:00,
2013-11-16 14:42:00,75.8,50.4,29.41,SSE,160,15.0,33.0,41,0.00,FEW,FEW,0.00,WeatherDisplay:10.37,2013-11-16 20:42:00,
2013-11-16 14:48:00,76.0,50.6,29.41,South,172,17.0,26.0,41,0.00,FEW,FEW,0.00,WeatherDisplay:10.37,2013-11-16 20:48:00,
2013-11-16 14:54:00,76.1,50.0,29.41,SW,229,9.0,17.0,40,0.00,FEW,FEW,0.00,WeatherDisplay:10.37,2013-11-16 20:54:00,
2013-11-16 15:00:00,76.1,48.6,29.41,South,183,15.0,22.0,38,0.00,FEW,FEW,0.00,WeatherDisplay:10.37,2013-11-16 21:00:00,
2013-11-16 15:06:00,76.5,47.5,29.40,SSE,154,21.0,28.0,36,0.00,FEW,FEW,0.00,WeatherDisplay:10.37,2013-11-16 21:06:00,
2013-11-16 15:12:00,76.0,49.9,29.40,SSE,162,15.0,22.0,40,0.00,FEW,FEW,0.00,WeatherDisplay:10.37,2013-11-16 21:12:00,
2013-11-16 15:18:00,76.1,50.6,29.40,SE,142,16.0,20.0,41,0.00,FEW,FEW,0.00,WeatherDisplay:10.37,2013-11-16 21:18:00,
2013-11-16 15:24:00,75.8,51.0,29.40,SE,130,15.0,21.0,42,0.00,FEW,FEW,0.00,WeatherDisplay:10.37,2013-11-16 21:24:00,
2013-11-16 15:30:00,75.8,51.7,29.39,ESE,105,14.0,24.0,43,0.00,FEW,FEW,0.00,WeatherDisplay:10.37,2013-11-16 21:30:00,
2013-11-16 15:36:00,74.6,52.4,29.39,East,87,23.0,33.0,46,0.00,FEW,FEW,0.00,WeatherDisplay:10.37,2013-11-16 21:36:00,
2013-11-16 15:42:00,74.0,52.4,29.40,SE,138,15.0,20.0,47,0.00,FEW,FEW,0.00,WeatherDisplay:10.37,2013-11-16 21:42:00,
2013-11-16 15:48:00,74.0,52.5,29.40,South,172,20.0,24.0,47,0.00,FEW,FEW,0.00,WeatherDisplay:10.37,2013-11-16 21:48:00,
2013-11-16 15:54:00,74.0,52.5,29.41,SSE,155,24.0,32.0,47,0.00,FEW,FEW,0.00,WeatherDisplay:10.37,2013-11-16 21:54:00,
2013-11-16 16:00:00,73.8,52.3,29.41,SE,138,15.0,31.0,47,0.00,FEW,FEW,0.00,WeatherDisplay:10.37,2013-11-16 22:00:00,
2013-11-16 16:06:00,73.6,52.1,29.41,SSE,151,10.0,24.0,47,0.00,SCT,SCT,0.00,WeatherDisplay:10.37,2013-11-16 22:06:00,
2013-11-16 16:12:00,73.6,52.1,29.41,South,170,15.0,24.0,47,0.00,SCT,SCT,0.00,WeatherDisplay:10.37,2013-11-16 22:12:00,
2013-11-16 16:18:00,73.4,51.9,29.41,SSE,163,16.0,20.0,47,0.00,SCT,SCT,0.00,WeatherDisplay:10.37,2013-11-16 22:18:00,
2013-11-16 16:24:00,73.3,52.4,29.41,SE,132,13.0,20.0,48,0.00,SCT,SCT,0.00,WeatherDisplay:10.37,2013-11-16 22:24:00,
2013-11-16 16:30:00,73.4,51.9,29.41,SSE,153,10.0,14.0,47,0.00,SCT,SCT,0.00,WeatherDisplay:10.37,2013-11-16 22:30:00,
2013-11-16 16:36:00,73.3,51.8,29.41,SSE,162,10.0,21.0,47,0.00,SCT,SCT,0.00,WeatherDisplay:10.37,2013-11-16 22:36:00,
2013-11-16 16:42:00,72.9,51.5,29.40,SSE,153,10.0,15.0,47,0.00,SCT,SCT,0.00,WeatherDisplay:10.37,2013-11-16 22:42:00,
2013-11-16 16:48:00,72.9,51.4,29.40,SSE,156,6.0,12.0,47,0.00,SCT,SCT,0.00,WeatherDisplay:10.37,2013-11-16 22:48:00,
2013-11-16 16:54:00,72.7,51.8,29.41,SSE,161,10.0,13.0,48,0.00,SCT,SCT,0.00,WeatherDisplay:10.37,2013-11-16 22:54:00,
2013-11-16 17:00:00,72.7,51.3,29.41,South,174,8.0,13.0,47,0.00,SCT,SCT,0.00,WeatherDisplay:10.37,2013-11-16 23:00:00,
2013-11-16 17:06:00,72.5,51.1,29.41,SSW,197,5.0,8.0,47,0.00,SCT,SCT,0.00,WeatherDisplay:10.37,2013-11-16 23:06:00,
2013-11-16 17:12:00,72.2,50.8,29.41,South,180,8.0,13.0,47,0.00,SCT,SCT,0.00,WeatherDisplay:10.37,2013-11-16 23:12:00,
2013-11-16 17:18:00,71.6,51.4,29.41,South,187,12.0,13.0,49,0.00,SCT,SCT,0.00,WeatherDisplay:10.37,2013-11-16 23:18:00,
2013-11-16 17:24:00,71.3,51.7,29.41,South,190,9.0,14.0,50,0.00,SCT,SCT,0.00,WeatherDisplay:10.37,2013-11-16 23:24:00,
2013-11-16 17:30:00,70.9,51.9,29.41,South,173,8.0,15.0,51,0.00,SCT,SCT,0.00,WeatherDisplay:10.37,2013-11-16 23:30:00,
2013-11-16 17:36:00,70.6,52.1,29.41,SSE,159,12.0,16.0,52,0.00,SCT,SCT,0.00,WeatherDisplay:10.37,2013-11-16 23:36:00,
2013-11-16 17:42:00,70.4,52.4,29.41,SSE,155,12.0,15.0,53,0.00,SCT,SCT,0.00,WeatherDisplay:10.37,2013-11-16 23:42:00,
2013-11-16 17:48:00,69.8,52.4,29.41,SSE,157,7.0,10.0,54,0.00,SCT,SCT,0.00,WeatherDisplay:10.37,2013-11-16 23:48:00,
2013-11-16 17:54:00,69.5,52.6,29.42,SSE,153,6.0,8.0,55,0.00,SCT,SCT,0.00,WeatherDisplay:10.37,2013-11-16 23:54:00,
2013-11-16 18:00:00,68.9,52.5,29.42,South,176,7.0,12.0,56,0.00,SCT,SCT,0.00,WeatherDisplay:10.37,2013-11-17 00:00:00,
2013-11-16 18:06:00,68.8,52.4,29.42,SSE,158,7.0,7.0,56,0.00,FEW,FEW,0.00,WeatherDisplay:10.37,2013-11-17 00:06:00,
2013-11-16 18:12:00,68.2,52.8,29.42,SSE,166,5.0,8.0,58,0.00,FEW,FEW,0.00,WeatherDisplay:10.37,2013-11-17 00:12:00,
2013-11-16 18:18:00,67.9,52.5,29.42,SSE,149,10.0,12.0,58,0.00,FEW,FEW,0.00,WeatherDisplay:10.37,2013-11-17 00:18:00,
2013-11-16 18:24:00,67.9,52.5,29.43,SSE,150,9.0,12.0,58,0.00,FEW,FEW,0.00,WeatherDisplay:10.37,2013-11-17 00:24:00,
2013-11-16 18:30:00,68.0,52.6,29.43,SSE,159,10.0,12.0,58,0.00,FEW,FEW,0.00,WeatherDisplay:10.37,2013-11-17 00:30:00,
2013-11-16 18:36:00,68.2,52.3,29.43,SE,137,14.0,18.0,57,0.00,FEW,FEW,0.00,WeatherDisplay:10.37,2013-11-17 00:36:00,
2013-11-16 18:42:00,68.4,52.5,29.43,SSE,149,9.0,9.0,57,0.00,FEW,FEW,0.00,WeatherDisplay:10.37,2013-11-17 00:42:00,
2013-11-16 18:48:00,68.4,52.5,29.43,SSE,155,12.0,21.0,57,0.00,FEW,FEW,0.00,WeatherDisplay:10.37,2013-11-17 00:48:00,
2013-11-16 18:54:00,68.6,52.2,29.43,SSE,157,14.0,25.0,56,0.00,FEW,FEW,0.00,WeatherDisplay:10.37,2013-11-17 00:54:00,
2013-11-16 19:00:00,68.7,52.4,29.43,SE,138,16.0,24.0,56,0.00,FEW,FEW,0.00,WeatherDisplay:10.37,2013-11-17 01:00:00,
2013-11-16 19:06:00,68.8,52.4,29.43,SE,141,9.0,15.0,56,0.00,SCT,SCT,0.00,WeatherDisplay:10.37,2013-11-17 01:06:00,
2013-11-16 19:12:00,68.5,52.6,29.43,ESE,115,13.0,16.0,57,0.00,SCT,SCT,0.00,WeatherDisplay:10.37,2013-11-17 01:12:00,
2013-11-16 19:18:00,68.0,52.7,29.43,SE,126,13.0,21.0,58,0.00,SCT,SCT,0.00,WeatherDisplay:10.37,2013-11-17 01:18:00,
2013-11-16 19:24:00,67.7,53.3,29.43,SE,134,12.0,21.0,60,0.00,SCT,SCT,0.00,WeatherDisplay:10.37,2013-11-17 01:24:00,
2013-11-16 19:30:00,67.3,53.3,29.43,SE,145,12.0,16.0,61,0.00,SCT,SCT,0.00,WeatherDisplay:10.37,2013-11-17 01:30:00,
2013-11-16 19:36:00,67.1,53.6,29.43,SSE,147,13.0,15.0,62,0.00,SCT,SCT,0.00,WeatherDisplay:10.37,2013-11-17 01:36:00,
2013-11-16 19:42:00,67.0,53.5,29.43,SE,140,15.0,15.0,62,0.00,SCT,SCT,0.00,WeatherDisplay:10.37,2013-11-17 01:42:00,
2013-11-16 19:48:00,67.0,53.5,29.43,SE,135,15.0,15.0,62,0.00,SCT,SCT,0.00,WeatherDisplay:10.37,2013-11-17 01:48:00,
2013-11-16 19:54:00,67.1,54.0,29.43,SE,134,9.0,17.0,63,0.00,SCT,SCT,0.00,WeatherDisplay:10.37,2013-11-17 01:54:00,
2013-11-16 20:00:00,67.1,54.0,29.43,SE,145,18.0,23.0,63,0.00,SCT,SCT,0.00,WeatherDisplay:10.37,2013-11-17 02:00:00,
2013-11-16 20:06:00,66.8,53.8,29.44,SSE,157,12.0,15.0,63,0.00,BKN,BKN,0.00,WeatherDisplay:10.37,2013-11-17 02:06:00,
2013-11-16 20:12:00,66.7,53.7,29.44,SSE,159,10.0,17.0,63,0.00,BKN,BKN,0.00,WeatherDisplay:10.37,2013-11-17 02:12:00,
2013-11-16 20:18:00,66.2,53.6,29.43,SE,144,13.0,16.0,64,0.00,BKN,BKN,0.00,WeatherDisplay:10.37,2013-11-17 02:18:00,
2013-11-16 20:24:00,66.1,53.5,29.43,SE,132,14.0,20.0,64,0.00,BKN,BKN,0.00,WeatherDisplay:10.37,2013-11-17 02:24:00,
2013-11-16 20:30:00,65.7,53.6,29.43,SE,146,14.0,18.0,65,0.00,BKN,BKN,0.00,WeatherDisplay:10.37,2013-11-17 02:30:00,
2013-11-16 20:36:00,65.3,53.6,29.43,SE,142,5.0,12.0,66,0.00,BKN,BKN,0.00,WeatherDisplay:10.37,2013-11-17 02:36:00,
2013-11-16 20:42:00,65.2,53.5,29.43,SE,145,9.0,15.0,66,0.00,BKN,BKN,0.00,WeatherDisplay:10.37,2013-11-17 02:42:00,
2013-11-16 20:48:00,65.2,53.9,29.43,South,173,13.0,18.0,67,0.00,BKN,BKN,0.00,WeatherDisplay:10.37,2013-11-17 02:48:00,
2013-11-16 20:54:00,65.0,53.7,29.43,South,182,12.0,14.0,67,0.00,BKN,BKN,0.00,WeatherDisplay:10.37,2013-11-17 02:54:00,
2013-11-16 21:00:00,64.8,53.5,29.43,SSE,157,12.0,15.0,67,0.00,BKN,BKN,0.00,WeatherDisplay:10.37,2013-11-17 03:00:00,
2013-11-16 21:06:00,64.8,53.9,29.43,SE,132,14.0,14.0,68,0.00,BKN,BKN,0.00,WeatherDisplay:10.37,2013-11-17 03:06:00,
2013-11-16 21:12:00,64.8,53.9,29.43,SE,135,14.0,14.0,68,0.00,BKN,BKN,0.00,WeatherDisplay:10.37,2013-11-17 03:12:00,
2013-11-16 21:18:00,64.6,54.2,29.42,SE,145,13.0,20.0,69,0.00,BKN,BKN,0.00,WeatherDisplay:10.37,2013-11-17 03:18:00,
2013-11-16 21:24:00,64.4,54.0,29.42,SSE,163,13.0,20.0,69,0.00,BKN,BKN,0.00,WeatherDisplay:10.37,2013-11-17 03:24:00,
2013-11-16 21:30:00,64.3,53.9,29.42,SSE,161,13.0,21.0,69,0.00,BKN,BKN,0.00,WeatherDisplay:10.37,2013-11-17 03:30:00,
2013-11-16 21:36:00,64.1,54.1,29.42,South,177,12.0,15.0,70,0.00,BKN,BKN,0.00,WeatherDisplay:10.37,2013-11-17 03:36:00,
2013-11-16 21:42:00,64.1,54.1,29.42,South,181,12.0,13.0,70,0.00,BKN,BKN,0.00,WeatherDisplay:10.37,2013-11-17 03:42:00,
2013-11-16 21:48:00,63.9,53.9,29.42,SSE,156,10.0,14.0,70,0.00,BKN,BKN,0.00,WeatherDisplay:10.37,2013-11-17 03:48:00,
2013-11-16 21:54:00,63.9,53.9,29.43,SSE,150,9.0,9.0,70,0.00,BKN,BKN,0.00,WeatherDisplay:10.37,2013-11-17 03:54:00,
2013-11-16 22:00:00,63.9,53.9,29.43,SSE,152,14.0,18.0,70,0.00,BKN,BKN,0.00,WeatherDisplay:10.37,2013-11-17 04:00:00,
2013-11-16 22:06:00,63.7,53.7,29.42,SSE,167,9.0,13.0,70,0.00,BKN,BKN,0.00,WeatherDisplay:10.37,2013-11-17 04:06:00,
2013-11-16 22:12:00,63.7,53.7,29.42,SSE,164,14.0,20.0,70,0.00,BKN,BKN,0.00,WeatherDisplay:10.37,2013-11-17 04:12:00,
2013-11-16 22:18:00,63.5,53.9,29.42,SSE,148,13.0,17.0,71,0.00,BKN,BKN,0.00,WeatherDisplay:10.37,2013-11-17 04:18:00,
2013-11-16 22:24:00,63.4,53.8,29.42,SE,138,13.0,16.0,71,0.00,BKN,BKN,0.00,WeatherDisplay:10.37,2013-11-17 04:24:00,
2013-11-16 22:30:00,63.2,53.6,29.42,SSE,164,12.0,15.0,71,0.00,BKN,BKN,0.00,WeatherDisplay:10.37,2013-11-17 04:30:00,
2013-11-16 22:36:00,63.2,53.6,29.42,South,190,16.0,16.0,71,0.00,BKN,BKN,0.00,WeatherDisplay:10.37,2013-11-17 04:36:00,
2013-11-16 22:42:00,63.0,53.4,29.42,SSW,203,10.0,13.0,71,0.00,BKN,BKN,0.00,WeatherDisplay:10.37,2013-11-17 04:42:00,
2013-11-16 22:48:00,63.0,53.4,29.42,SSE,155,13.0,15.0,71,0.00,BKN,BKN,0.00,WeatherDisplay:10.37,2013-11-17 04:48:00,
2013-11-16 22:54:00,63.4,53.0,29.42,SE,146,14.0,16.0,69,0.00,BKN,BKN,0.00,WeatherDisplay:10.37,2013-11-17 04:54:00,
2013-11-16 23:00:00,63.4,53.0,29.42,SSE,168,9.0,13.0,69,0.00,BKN,BKN,0.00,WeatherDisplay:10.37,2013-11-17 05:00:00,
2013-11-16 23:03:00,63.2,52.8,29.42,South,172,9.0,15.0,69,0.00,SCT,SCT,0.00,WeatherDisplay:10.37,2013-11-17 05:03:00,
2013-11-16 23:09:00,63.4,52.2,29.42,SSE,149,15.0,21.0,67,0.00,SCT,SCT,0.00,WeatherDisplay:10.37,2013-11-17 05:09:00,
2013-11-16 23:15:00,63.4,51.8,29.41,South,171,10.0,14.0,66,0.00,SCT,SCT,0.00,WeatherDisplay:10.37,2013-11-17 05:15:00,
2013-11-16 23:21:00,63.4,51.0,29.41,SSW,204,8.0,14.0,64,0.00,SCT,SCT,0.00,WeatherDisplay:10.37,2013-11-17 05:21:00,
2013-11-16 23:27:00,63.5,49.4,29.41,South,189,10.0,13.0,60,0.00,SCT,SCT,0.00,WeatherDisplay:10.37,2013-11-17 05:27:00,
2013-11-16 23:30:00,63.7,49.1,29.41,South,183,7.0,10.0,59,0.00,SCT,SCT,0.00,WeatherDisplay:10.37,2013-11-17 05:30:00,
2013-11-16 23:33:00,63.7,48.1,29.41,SSW,197,8.0,13.0,57,0.00,SCT,SCT,0.00,WeatherDisplay:10.37,2013-11-17 05:33:00,
2013-11-16 23:39:00,64.3,47.3,29.41,SSE,166,7.0,15.0,54,0.00,SCT,SCT,0.00,WeatherDisplay:10.37,2013-11-17 05:39:00,
2013-11-16 23:45:00,64.4,45.9,29.41,SSE,150,9.0,13.0,51,0.00,SCT,SCT,0.00,WeatherDisplay:10.37,2013-11-17 05:45:00,
2013-11-16 23:51:00,65.0,45.3,29.41,SSE,149,10.0,13.0,49,0.00,SCT,SCT,0.00,WeatherDisplay:10.37,2013-11-17 05:51:00,
2013-11-16 23:57:00,65.2,43.9,29.41,SSW,207,8.0,13.0,46,0.00,SCT,SCT,0.00,WeatherDisplay:10.37,2013-11-17 05:57:00,